{"data":{"norad_id":47861,"intl_designator":"2021-021B","name":"STARLINK-2280","alt_names":[],"object_type":"PAYLOAD","status":"ACTIVE","operator":null,"country":"US","launch_date":"2021-03-14","launch_site_code":"AFETR","launch_vehicle":null,"mission":null,"orbit_class":"UNKNOWN","rcs_meters":null,"size_class":null,"mass_kg":null,"dimensions":null,"purposes":["comms"],"wikipedia_slug":null,"has_3d_model":false,"image_url":null,"decayed_at":null,"tle_current":{"epoch":"2026-09-20T02:18:01.712160Z","epoch_age_seconds":64168,"freshness":"FRESH","line1":"1 47861U 21021B   26263.09585315  .00000999  00000+0  43949-4 0  9996","line2":"2 47861  53.1582  73.5862 0000849 123.9814 236.1268 15.31706400306185","mean_motion":15.317064,"eccentricity":8.49e-5,"inclination_deg":53.1582,"raan_deg":73.5862,"arg_perigee_deg":123.9814,"mean_anomaly_deg":236.1268,"bstar":4.3949e-5,"rev_number":30618,"period_min":94.012795141419,"perigee_km":470.13944918793,"apogee_km":471.30238526228,"semimajor_km":6848.8579172251,"source":"CELESTRAK","updated_at":"2026-09-20T09:00:38.754506Z"}}}